Regional Weather Roundup
Issued by NWS

Home | Current Version | Previous Version | Text Only | Print | Product List | Glossary Off
Versions: 1 2 3 4 5 6 7 8 9 10 11 12 13 14 15 16 17 18 19 20 21 22 23 24 25 26 27 28 29 30 31 32 33 34 35 36 37 38 39 40 41 42 43 44 45 46 47 48 49 50

036
ASUS43 KDMX 230001
RWRIA

WEATHER ROUNDUP FOR IOWA
NATIONAL WEATHER SERVICE DES MOINES IA
600 PM CST WED FEB 22 2017

NOTE: "FAIR" INDICATES FEW OR NO CLOUDS BELOW 12,000 FEET WITH NO
SIGNIFICANT WEATHER AND/OR OBSTRUCTIONS TO VISIBILITY.

* - THESE STATIONS ARE NOT NWS STATIONS...THUS NOT UNDER NWS
QUALITY CONTROL.  THEY ALSO DO NOT REPORT WEATHER SUCH
AS PRECIPITATION OR FOG.

IAZ001>003-012>014-020>022-031>034-043>046-230100-
   NORTHWEST IOWA

CITY           SKY/WX    TMP DP  RH WIND       PRES   REMARKS
CARROLL *      CLEAR     57  43  58 CALM      29.66R
CHEROKEE *     CLEAR     55  41  58 NW10      29.69R
DENISON *      CLEAR     59  37  44 NW10      29.66R
LE MARS *      CLEAR     54  43  66 NW14G22   29.73R
ORANGE CITY *  CLEAR     52  45  76 NW12      29.72R
SHELDON *      CLEAR     50  46  87 NW9G15    29.70R
SIOUX CITY     CLEAR     59  41  51 N18       29.72R
6HR MIN TEMP:  59; 6HR MAX TEMP:  71;

SPENCER        CLEAR     53  43  68 NW17      29.67R
6HR MIN TEMP:  53; 6HR MAX TEMP:  67;

STORM LAKE *   CLEAR     55  43  62 NW15G24   29.67R
$$

IAZ055>058-069>071-079>083-090>094-230100-
   SOUTHWEST IOWA

CITY           SKY/WX    TMP DP  RH WIND       PRES   REMARKS
ATLANTIC *     CLEAR     59  39  47 N9        29.68R
CLARINDA *     CLEAR     64  41  42 N10       29.69R
COUNCIL BLFS * CLEAR     63  37  39 N13G20    29.69R
CRESTON *      CLEAR     61  41  48 NW8       29.68R
HARLAN  *      CLEAR     57  41  54 NW10      29.72R
LAMONI         CLEAR     62  39  42 NW13      29.65R
6HR MIN TEMP:  62; 6HR MAX TEMP:  75;

RED OAK *      CLEAR     64  39  39 N9        29.67R
SHENANDOAH *   CLEAR     63  41  45 N7        29.68R
$$

IAZ047>049-059>061-072>074-084-230100-
   CENTRAL IOWA

CITY           SKY/WX    TMP DP  RH WIND       PRES   REMARKS
AMES           CLEAR     62  47  57 NW14      29.62R
6HR MIN TEMP:  62; 6HR MAX TEMP:  67;

ANKENY *       CLEAR     64  43  45 NW6G13    29.64R
BOONE *        CLEAR     63  45  51 NW14      29.62R
CHARITON *     CLEAR     64  39  39 W8        29.65R
DES MOINES     PTCLDY    67  42  40 NW10      29.64R
6HR MIN TEMP:  66; 6HR MAX TEMP:  72;

GRINNELL*      CLEAR     59  41  51 W7        29.63R
KNOXVILLE *    CLEAR     63  39  42 W10       29.63R
MARSHALLTOWN   CLEAR     58  45  62 W7        29.60R
6HR MIN TEMP:  58; 6HR MAX TEMP:  71;

NEWTON *       CLEAR     63  41  45 W6        29.61R
PELLA *        CLEAR     63  38  40 NW8       29.64R
PERRY *          N/A     60  42  51 NW8       29.65R
$$

IAZ004>006-015-016-023>025-035-036-230100-
   NORTH CENTRAL IOWA

CITY           SKY/WX    TMP DP  RH WIND       PRES   REMARKS
ALGONA *       CLEAR     55  46  71 W12       29.63R
CLARION *      CLEAR     57  54  88 NW5       29.62R
ESTHERVILLE    CLEAR     52  46  80 NW20      29.64R
6HR MIN TEMP:  52; 6HR MAX TEMP:  62;

FORT DODGE *   CLEAR     59  43  55 NW9       29.64R
MASON CITY     CLEAR     52  44  74 W8        29.62R
6HR MIN TEMP:  52; 6HR MAX TEMP:  60;

FOREST CITY *    N/A     54  45  71 W3        29.61R
WEBSTER CITY * CLEAR     57  45  62 NW7       29.61R
IOWA FALLS *     N/A     57  50  78 NW9       29.63R
$$

IAZ007>011-017>019-026>030-037>042-050>054-066-230100-
   NORTHEAST IOWA

CITY           SKY/WX    TMP DP  RH WIND       PRES   REMARKS
CEDAR RAPIDS   CLEAR     60  41  49 W13       29.58R
6HR MIN TEMP:  60; 6HR MAX TEMP:  76;

CHARLES CITY * CLEAR     54  50  87 W8        29.60R
CLINTON *      CLEAR     63  50  62 S14       29.58R
DECORAH *      CLEAR     55  45  67 VRB7      29.57R
DUBUQUE        CLEAR     62  44  51 W10       29.57R
6HR MIN TEMP:  61; 6HR MAX TEMP:  71;

MONTICELLO *   CLEAR     61  45  55 W8        29.57R
OELWEIN *      CLEAR     55  48  76 NW10      29.60R
WATERLOO       CLEAR     58  45  62 NW8       29.59R
6HR MIN TEMP:  58; 6HR MAX TEMP:  69;

$$

IAZ064-065-067-068-078-230100-
   EAST CENTRAL IOWA

CITY           SKY/WX    TMP DP  RH WIND       PRES   REMARKS
DAVENPORT      CLEAR     65  48  54 S17G25    29.58R
6HR MIN TEMP:  65; 6HR MAX TEMP:  72;

IOWA CITY      CLEAR     68  39  34 W15       29.59R
6HR MIN TEMP:  68; 6HR MAX TEMP:  77;

MUSCATINE *    CLEAR     64  52  63 S14       29.58R
QUAD CITIES    CLEAR     66  52  60 S15       29.57F
$$

IAZ062-063-075>077-085>089-095>099-230100-
   SOUTHEAST IOWA

CITY           SKY/WX    TMP DP  RH WIND       PRES   REMARKS
BURLINGTON     CLEAR     63  53  70 S17       29.61S
6HR MIN TEMP:  63; 6HR MAX TEMP:  70;

FAIRFIELD *    CLEAR     68  39  34 W8        29.59R
KEOKUK *       CLEAR     63  54  72 S8G17     29.62R
OTTUMWA        CLEAR     67  35  30 NW12      29.61R
6HR MIN TEMP:  67; 6HR MAX TEMP:  79;

WASHINGTON *   CLEAR     64  43  45 W8        29.60R
$$

ABBREVIATIONS USED IN REMARKS
   TC - TEMPERATURES IN CELSIUS
  WCI - WIND CHILL INDEX
   HX - HEAT INDEX
  VSB - VISIBILITY
$$





USA.gov is the U.S. government's official web portal to all federal, state and local government web resources and services.